OE3BCB-14 Weather Reports


Display with metric or nautical units.
time (UTC)temp
F
wind
direction
speed
MPH
gust
MPH
rain 1hr
in
rain 24hr
in
rain mn
in
humidity
%
barometer
mb
20260505185848 71 0 0.0 7.0 0.00 0.00 0.00 29 1005.5
20260505185346 71 0 0.0 0.0 0.00 0.00 0.00 29 1005.5
20260505184844 72 0 0.0 0.0 0.00 0.00 0.00 28 1005.4
20260505184341 73 0 0.0 0.0 0.00 0.00 0.00 28 1005.4
20260505183336 74 0 0.0 21.0 0.00 0.00 0.00 27 1005.3
20260505182834 74 225 1.0 20.0 0.00 0.00 0.00 26 1005.2
20260505182332 75 225 0.0 0.0 0.00 0.00 0.00 26 1005.2
20260505181829 75 225 0.0 0.0 0.00 0.00 0.00 25 1005.2
20260505181327 76 225 0.0 0.0 0.00 0.00 0.00 25 1005.1
20260505180824 76 225 0.0 0.0 0.00 0.00 0.00 24 1005.2
20260505180322 77 225 0.0 0.0 0.00 0.00 0.00 24 1005.2
20260505175819 78 225 0.0 0.0 0.00 0.00 0.00 23 1005.2
20260505175317 79 225 0.0 0.0 0.00 0.00 0.00 23 1005.2
20260505174815 81 225 0.0 0.0 0.00 0.00 0.00 22 1005.2
20260505174312 82 225 0.0 0.0 0.00 0.00 0.00 22 1005.2
20260505173810 84 225 0.0 0.0 0.00 0.00 0.00 21 1005.2
20260505173307 86 225 0.0 0.0 0.00 0.00 0.00 21 1005.2
20260505172805 88 225 0.0 0.0 0.00 0.00 0.00 21 1005.2
20260505172305 88 225 0.0 6.0 0.00 0.00 0.00 20 1005.2
20260505171800 89 225 0.0 1.0 0.00 0.00 0.00 20 1005.1
20260505171258 88 270 0.0 0.0 0.00 0.00 0.00 20 1005.1
20260505170755 87 270 0.0 0.0 0.00 0.00 0.00 20 1005.1
20260505170253 87 270 0.0 21.0 0.00 0.00 0.00 19 1005.1
20260505165751 91 180 0.0 18.0 0.00 0.00 0.00 18 1005.2
20260505165248 95 180 0.0 1.0 0.00 0.00 0.00 18 1005.2
20260505164746 97 270 0.0 0.0 0.00 0.00 0.00 17 1005.2
20260505164243 98 270 0.0 0.0 0.00 0.00 0.00 18 1005.3
20260505162736 97 225 0.0 16.0 0.00 0.00 0.00 18 1005.4
20260505162234 94 270 0.0 3.0 0.00 0.00 0.00 18 1005.5
20260505161731 91 315 0.0 1.0 0.00 0.00 0.00 19 1005.6
20260505161229 89 270 0.0 35.0 0.00 0.00 0.00 18 1005.6
20260505160726 91 270 0.0 1.0 0.00 0.00 0.00 17 1005.7
20260505160224 94 45 0.0 0.0 0.00 0.00 0.00 17 1005.7
20260505153210 90 225 0.0 16.0 0.00 0.00 0.00 17 1005.6
20260505152707 91 180 0.0 18.0 0.00 0.00 0.00 17 1005.6
20260505152205 93 180 0.0 6.0 0.00 0.00 0.00 17 1005.6
20260505151702 94 180 0.0 18.0 0.00 0.00 0.00 16 1005.6
20260505151200 92 180 0.0 2.0 0.00 0.00 0.00 17 1005.6
20260505150657 91 180 0.0 9.0 0.00 0.00 0.00 16 1005.6
20260505150155 93 180 0.0 19.0 0.00 0.00 0.00 16 1005.6
20260505140628 101 270 0.0 5.0 0.00 0.00 0.00 15 1005.8
20260505140126 105 180 0.0 13.0 0.00 0.00 0.00 15 1005.9
20260505124550 106 45 1.0 13.0 0.00 0.00 0.00 18 1006.9
20260505124047 105 135 0.0 14.0 0.00 0.00 0.00 19 1007.0
20260505123043 106 180 0.0 2.0 0.00 0.00 0.00 20 1007.2
20260505122540 105 45 0.0 1.0 0.00 0.00 0.00 20 1007.3
20260505122038 101 45 1.0 16.0 0.00 0.00 0.00 21 1007.4
20260505121535 99 45 1.0 17.0 0.00 0.00 0.00 21 1007.4
20260505121033 97 135 1.0 16.0 0.00 0.00 0.00 22 1007.6
20260505120531 97 45 18.0 18.0 0.00 0.00 0.00 22 1007.7
20260505120028 97 315 0.0 4.0 0.00 0.00 0.00 23 1007.9
20260505115526 100 90 3.0 5.0 0.00 0.00 0.00 21 1007.9
20260505115023 99 45 0.0 30.0 0.00 0.00 0.00 23 1008.0
20260505114521 99 45 1.0 16.0 0.00 0.00 0.00 23 1008.1
20260505114018 101 180 0.0 15.0 0.00 0.00 0.00 23 1008.2
20260505113516 102 45 1.0 13.0 0.00 0.00 0.00 23 1008.3
20260505113014 98 0 0.0 16.0 0.00 0.00 0.00 25 1008.4
20260505112511 98 45 1.0 17.0 0.00 0.00 0.00 25 1008.6
20260505112009 98 135 2.0 14.0 0.00 0.00 0.00 24 1008.6
20260505111004 94 45 0.0 20.0 0.00 0.00 0.00 26 1008.7
20260505110502 96 45 0.0 17.0 0.00 0.00 0.00 26 1008.8
20260505101940 92 45 2.0 19.0 0.00 0.00 0.00 29 1009.5
20260505101437 89 45 1.0 3.0 0.00 0.00 0.00 30 1009.6
20260505100935 89 45 0.0 19.0 0.00 0.00 0.00 31 1009.6
20260505100433 90 45 0.0 4.0 0.00 0.00 0.00 30 1009.7
20260505095930 88 0 1.0 21.0 0.00 0.00 0.00 31 1009.8
20260505095428 87 0 0.0 23.0 0.00 0.00 0.00 32 1009.9
20260505094925 88 0 1.0 20.0 0.00 0.00 0.00 32 1009.9
20260505094423 89 135 3.0 18.0 0.00 0.00 0.00 31 1010.0
20260505093920 89 45 1.0 8.0 0.00 0.00 0.00 32 1010.1
20260505093418 89 0 1.0 2.0 0.00 0.00 0.00 32 1010.2
20260505092916 87 45 2.0 21.0 0.00 0.00 0.00 33 1010.2
20260505092413 87 45 20.0 20.0 0.00 0.00 0.00 33 1010.2
20260505091408 87 45 0.0 18.0 0.00 0.00 0.00 34 1010.4
20260505090906 87 9.0 22.0 0.00 0.00 0.00 34 1010.4
20260505090404 87 45 0.0 15.0 0.00 0.00 0.00 35 1010.5
20260505085901 86 45 0.0 5.0 0.00 0.00 0.00 36 1010.7
20260505085359 87 45 1.0 20.0 0.00 0.00 0.00 36 1010.6
20260505084856 85 0 0.0 6.0 0.00 0.00 0.00 37 1010.7
20260505084354 85 135 1.0 17.0 0.00 0.00 0.00 37 1010.7
20260505083852 83 45 0.0 10.0 0.00 0.00 0.00 39 1010.7
20260505083349 82 45 0.0 20.0 0.00 0.00 0.00 39 1010.8
20260505082847 83 45 0.0 21.0 0.00 0.00 0.00 39 1010.8
20260505082344 81 0 2.0 22.0 0.00 0.00 0.00 40 1010.8
20260505081842 81 45 1.0 2.0 0.00 0.00 0.00 40 1010.9
20260505081340 80 315 2.0 20.0 0.00 0.00 0.00 42 1010.9
20260505080837 80 0 0.0 19.0 0.00 0.00 0.00 42 1011.0
20260505080335 78 45 0.0 21.0 0.00 0.00 0.00 44 1011.1
20260505075832 77 315 1.0 2.0 0.00 0.00 0.00 43 1011.1
20260505075330 75 45 0.0 21.0 0.00 0.00 0.00 44 1011.1
20260505074827 71 135 0.0 0.0 0.00 0.00 0.00 45 1011.1
20260505074325 70 45 0.0 18.0 0.00 0.00 0.00 44 1011.1
20260505073823 70 45 0.0 2.0 0.00 0.00 0.00 44 1011.1
20260505073320 70 45 0.0 18.0 0.00 0.00 0.00 45 1011.1
20260505072818 69 45 0.0 21.0 0.00 0.00 0.00 45 1011.2
20260505072315 69 45 0.0 22.0 0.00 0.00 0.00 45 1011.3
20260505071311 69 45 0.0 19.0 0.00 0.00 0.00 45 1011.2
20260505070808 69 0 0.0 2.0 0.00 0.00 0.00 45 1011.3
20260505070306 69 45 0.0 6.0 0.00 0.00 0.00 46 1011.3
20260505065803 69 45 0.0 7.0 0.00 0.00 0.00 46 1011.3
20260505065301 69 0 0.0 19.0 0.00 0.00 0.00 46 1011.4
20260505064758 69 45 1.0 17.0 0.00 0.00 0.00 46 1011.4
20260505064256 69 0 0.0 2.0 0.00 0.00 0.00 46 1011.4
20260505063754 70 45 1.0 7.0 0.00 0.00 0.00 45 1011.4
20260505063251 71 315 0.0 1.0 0.00 0.00 0.00 47 1011.4
20260505062749 70 315 0.0 1.0 0.00 0.00 0.00 47 1011.4
20260505062246 70 180 0.0 6.0 0.00 0.00 0.00 47 1011.4
20260505061744 69 180 0.0 0.0 0.00 0.00 0.00 48 1011.4
20260505061242 68 180 0.0 1.0 0.00 0.00 0.00 49 1011.4
20260505060739 67 225 0.0 0.0 0.00 0.00 0.00 49 1011.4
20260505060237 67 225 0.0 0.0 0.00 0.00 0.00 49 1011.4
20260505055734 66 180 0.0 1.0 0.00 0.00 0.00 50 1011.4
20260505055232 64 180 0.0 0.0 0.00 0.00 0.00 50 1011.4
20260505054730 64 180 0.0 0.0 0.00 0.00 0.00 50 1011.3
20260505054227 63 180 0.0 0.0 0.00 0.00 0.00 50 1011.4
20260505053725 62 180 0.0 0.0 0.00 0.00 0.00 50 1011.4
20260505053222 62 180 0.0 0.0 0.00 0.00 0.00 50 1011.4
20260505052720 61 180 0.0 0.0 0.00 0.00 0.00 51 1011.3
20260505051715 59 180 0.0 0.0 0.00 0.00 0.00 50 1011.3
20260505051213 59 180 0.0 0.0 0.00 0.00 0.00 50 1011.3
20260505050710 58 180 0.0 0.0 0.00 0.00 0.00 50 1011.3
20260505050208 58 180 0.0 0.0 0.00 0.00 0.00 50 1011.2
20260505041646 54 180 0.0 0.0 0.00 0.00 0.00 50 1011.1
20260505041144 54 180 0.0 0.0 0.00 0.00 0.00 50 1011.0
20260505040641 55 180 0.0 0.0 0.00 0.00 0.00 50 1011.0
20260505040139 55 180 0.0 0.0 0.00 0.00 0.00 50 1011.0
20260505035636 55 180 0.0 0.0 0.00 0.00 0.00 50 1011.0
20260505035135 54 180 0.0 0.0 0.00 0.00 0.00 50 1011.0
20260505034632 54 180 0.0 0.0 0.00 0.00 0.00 50 1011.1
20260505034129 54 180 0.0 0.0 0.00 0.00 0.00 49 1011.0
20260505033627 54 180 0.0 0.0 0.00 0.00 0.00 49 1011.0
20260505033124 54 180 0.0 0.0 0.00 0.00 0.00 49 1011.0
20260505032120 54 180 0.0 0.0 0.00 0.00 0.00 49 1011.0
20260505031115 54 180 0.0 0.0 0.00 0.00 0.00 48 1011.1
20260505030612 54 180 0.0 0.0 0.00 0.00 0.00 48 1011.1
20260505030110 55 180 0.0 0.0 0.00 0.00 0.00 48 1011.1
20260505025608 56 180 0.0 0.0 0.00 0.00 0.00 48 1011.2
20260505025105 56 180 0.0 0.0 0.00 0.00 0.00 48 1011.2
20260505024603 56 180 0.0 0.0 0.00 0.00 0.00 48 1011.3
20260505024100 56 180 0.0 1.0 0.00 0.00 0.00 47 1011.3
20260505023558 56 180 0.0 0.0 0.00 0.00 0.00 47 1011.3
20260505023055 56 225 0.0 0.0 0.00 0.00 0.00 47 1011.2
20260505022553 55 225 0.0 0.0 0.00 0.00 0.00 47 1011.3
20260505021548 56 225 0.0 1.0 0.00 0.00 0.00 46 1011.4
20260505021046 56 225 0.0 0.0 0.00 0.00 0.00 46 1011.4
20260505020544 56 225 0.0 0.0 0.00 0.00 0.00 46 1011.4
20260505015539 56 225 0.0 0.0 0.00 0.00 0.00 45 1011.5
20260505015036 56 225 0.0 0.0 0.00 0.00 0.00 45 1011.5
20260505014534 56 225 0.0 0.0 0.00 0.00 0.00 45 1011.5
20260505014031 57 225 0.0 0.0 0.00 0.00 0.00 45 1011.6
20260505013529 57 225 0.0 0.0 0.00 0.00 0.00 44 1011.6
20260505013027 57 225 0.0 27.0 0.00 0.00 0.00 44 1011.5
20260505012524 57 225 0.0 5.0 0.00 0.00 0.00 44 1011.6
20260505012022 57 225 0.0 1.0 0.00 0.00 0.00 44 1011.6
20260505011519 57 225 0.0 0.0 0.00 0.00 0.00 44 1011.7
20260505011017 57 225 0.0 0.0 0.00 0.00 0.00 43 1011.7
20260505010515 57 225 0.0 13.0 0.00 0.00 0.00 43 1011.6
20260505010012 57 225 0.0 0.0 0.00 0.00 0.00 43 1011.8
20260505005510 57 225 0.0 0.0 0.00 0.00 0.00 43 1011.7
20260505005007 57 225 0.0 0.0 0.00 0.00 0.00 42 1011.7
20260505004505 57 225 0.0 0.0 0.00 0.00 0.00 42 1011.7
20260505004002 57 225 0.0 0.0 0.00 0.00 0.00 42 1011.7
20260505003500 57 225 0.0 0.0 0.00 0.00 0.00 41 1011.8
20260505002958 57 225 0.0 1.0 0.00 0.00 0.00 41 1011.8
20260505002455 58 225 0.0 0.0 0.00 0.00 0.00 41 1011.7
20260505001953 58 225 0.0 0.0 0.00 0.00 0.00 41 1011.6
20260505001450 58 225 0.0 0.0 0.00 0.00 0.00 40 1011.7
20260505000948 58 225 0.0 0.0 0.00 0.00 0.00 40 1011.7
20260505000446 58 225 0.0 0.0 0.00 0.00 0.00 40 1011.7
20260504235943 58 225 0.0 0.0 0.00 0.00 0.00 39 1011.7
20260504235441 59 225 0.0 0.0 0.00 0.00 0.00 39 1011.6
20260504234938 59 225 0.0 0.0 0.00 0.00 0.00 39 1011.7
20260504234436 59 225 0.0 0.0 0.00 0.00 0.00 38 1011.7
20260504233933 60 225 0.0 0.0 0.00 0.00 0.00 38 1011.7
20260504233431 60 225 0.0 0.0 0.00 0.00 0.00 38 1011.7
20260504232929 60 225 0.0 0.0 0.00 0.00 0.00 37 1011.7
20260504232426 60 225 0.0 0.0 0.00 0.00 0.00 37 1011.7
20260504231924 61 225 0.0 0.0 0.00 0.00 0.00 37 1011.7
20260504231421 61 225 0.0 0.0 0.00 0.00 0.00 36 1011.7
20260504230919 61 225 0.0 0.0 0.00 0.00 0.00 36 1011.7
20260504230417 61 225 0.0 0.0 0.00 0.00 0.00 35 1011.7
20260504225914 62 225 0.0 0.0 0.00 0.00 0.00 35 1011.8
20260504225412 63 225 0.0 0.0 0.00 0.00 0.00 35 1011.8
20260504224909 64 225 0.0 16.0 0.00 0.00 0.00 34 1011.8
20260504224407 64 225 0.0 2.0 0.00 0.00 0.00 34 1011.8
20260504223905 64 225 0.0 0.0 0.00 0.00 0.00 34 1011.9
20260504223402 64 225 0.0 0.0 0.00 0.00 0.00 34 1011.8
20260504222357 65 225 0.0 0.0 0.00 0.00 0.00 33 1011.9
20260504221855 66 225 0.0 1.0 0.00 0.00 0.00 33 1011.8
20260504221352 66 225 0.0 1.0 0.00 0.00 0.00 33 1011.8
20260504220850 65 225 0.0 0.0 0.00 0.00 0.00 32 1011.8
20260504220348 65 225 0.0 0.0 0.00 0.00 0.00 32 1011.8
20260504215845 66 225 0.0 0.0 0.00 0.00 0.00 31 1011.8
20260504215343 67 225 0.0 1.0 0.00 0.00 0.00 31 1011.8
20260504214840 68 225 0.0 0.0 0.00 0.00 0.00 31 1011.9
20260504214338 68 225 0.0 24.0 0.00 0.00 0.00 31 1011.9
20260504213836 66 225 0.0 0.0 0.00 0.00 0.00 31 1011.8
20260504213333 67 225 0.0 0.0 0.00 0.00 0.00 30 1011.9
20260504212831 69 225 0.0 0.0 0.00 0.00 0.00 30 1011.9
20260504212328 70 225 0.0 0.0 0.00 0.00 0.00 29 1011.8
20260504211826 69 225 0.0 0.0 0.00 0.00 0.00 29 1011.9
20260504210821 70 225 0.0 1.0 0.00 0.00 0.00 28 1012.0
20260504210319 70 225 0.0 2.0 0.00 0.00 0.00 29 1012.1
20260504205816 71 225 0.0 8.0 0.00 0.00 0.00 28 1012.0
20260504205314 71 270 0.0 0.0 0.00 0.00 0.00 28 1012.1
20260504204811 71 270 0.0 0.0 0.00 0.00 0.00 28 1012.0
20260504204309 72 225 0.0 11.0 0.00 0.00 0.00 28 1012.0
20260504203807 72 225 0.0 24.0 0.00 0.00 0.00 27 1012.0
20260504203304 72 225 0.0 0.0 0.00 0.00 0.00 27 1012.0
20260504202802 72 225 0.0 25.0 0.00 0.00 0.00 27 1012.0
20260504202259 72 225 0.0 1.0 0.00 0.00 0.00 27 1012.0
20260504201757 72 315 0.0 22.0 0.00 0.00 0.00 27 1012.0
20260504201255 72 270 0.0 23.0 0.00 0.00 0.00 26 1012.0
20260504200752 74 0 0.0 21.0 0.00 0.00 0.00 26 1012.0
20260504200250 75 0 0.0 6.0 0.00 0.00 0.00 26 1012.0
20260504195747 75 270 0.0 23.0 0.00 0.00 0.00 26 1012.0
20260504195245 74 270 0.0 5.0 0.00 0.00 0.00 25 1011.9
20260504194743 74 180 0.0 2.0 0.00 0.00 0.00 25 1011.9
20260504194240 74 315 0.0 1.0 0.00 0.00 0.00 25 1011.9
20260504193738 74 225 0.0 2.0 0.00 0.00 0.00 25 1011.8
20260504193235 75 0 0.0 5.0 0.00 0.00 0.00 25 1011.8
20260504192733 75 45 0.0 3.0 0.00 0.00 0.00 24 1011.8
20260504191728 75 135 0.0 1.0 0.00 0.00 0.00 24 1011.9
20260504191226 75 180 0.0 20.0 0.00 0.00 0.00 24 1011.8
20260504190723 75 315 0.0 0.0 0.00 0.00 0.00 23 1011.7